Date,TemperatureHighF,TemperatureAvgF,TemperatureLowF,DewpointHighF,DewpointAvgF,DewpointLowF,HumidityHigh,HumidityAvg,HumidityLow,PressureMaxIn,PressureMinIn,WindSpeedMaxMPH,WindSpeedAvgMPH,GustSpeedMaxMPH,PrecipitationSumIn
2012-1-1,68.8,44.5,29.1,52.9,35.6,25.3,94,74,46,30.13,29.85,22,2,22,0.00
2012-1-2,41.4,33.9,24.7,26.2,19.0,12.0,84,55,32,30.11,29.94,21,2,21,0.00
2012-1-3,26.6,22.1,19.8,12.8,11.1,9.2,73,62,51,30.37,30.27,13,1,13,0.00
2012-1-4,45.2,28.5,15.1,20.8,13.7,2.6,88,59,21,30.40,30.09,11,0,11,0.01
2012-1-5,52.8,37.1,25.3,32.1,26.4,19.6,89,68,37,30.16,30.04,11,1,11,0.00
2012-1-6,61.8,39.8,26.8,32.0,27.3,22.9,89,66,28,30.15,29.97,10,0,10,0.00
2012-1-7,60.5,44.3,29.0,49.2,38.5,25.1,95,81,62,30.08,29.97,9,0,9,0.03
2012-1-8,50.2,44.4,37.3,48.5,42.7,35.7,95,94,92,30.22,30.05,3,0,3,0.03
2012-1-9,51.2,47.2,42.3,48.0,45.0,40.2,94,92,88,30.18,30.03,5,0,5,0.08
2012-1-10,54.7,47.5,39.8,50.3,44.9,38.2,95,91,82,30.09,29.90,6,0,6,0.01
2012-1-11,53.2,46.7,40.9,51.2,44.7,38.5,93,93,91,29.92,29.43,26,2,26,1.65
2012-1-12,55.2,43.1,27.9,46.5,38.5,15.8,93,84,57,29.70,29.51,28,3,28,0.02
2012-1-13,33.5,26.7,20.7,21.7,18.3,15.6,87,71,53,30.12,29.68,12,1,12,0.00
2012-1-14,43.4,32.2,20.4,24.8,19.9,16.1,85,62,40,30.22,30.07,21,1,21,0.00
2012-1-15,43.1,36.7,29.1,31.0,27.1,22.5,85,70,49,30.49,30.06,12,1,12,0.00
2012-1-16,29.1,25.4,24.3,25.2,21.6,20.5,85,85,85,30.49,30.26,11,0,11,0.00
2012-1-25,61.8,55.2,48.4,42.5,39.7,36.2,79,57,40,30.29,30.10,9,1,9,0.00
2012-1-26,62.0,53.3,45.7,56.8,49.2,41.3,90,86,72,30.13,29.59,29,2,29,0.49
2012-1-27,57.5,49.7,36.1,54.3,43.6,32.8,92,80,60,30.03,29.55,26,3,26,0.14
2012-1-28,59.5,39.8,28.8,40.7,31.9,19.6,92,75,46,30.25,30.01,17,1,17,0.00
2012-1-29,50.8,36.5,26.3,23.0,18.6,8.0,77,52,20,30.38,30.22,12,1,12,0.00
2012-1-30,58.5,38.7,24.3,28.4,24.6,21.0,89,62,29,30.45,30.28,10,0,10,0.00
2012-1-31,64.7,45.0,27.9,37.0,29.6,24.6,88,59,30,30.41,30.21,16,1,16,0.00
2012-2-1,61.2,50.9,44.2,51.5,43.5,31.0,92,76,51,30.22,30.01,16,1,16,0.17
2012-2-2,61.2,49.6,37.3,51.6,41.6,33.9,93,76,45,30.31,30.00,16,2,16,0.01
2012-2-3,57.7,42.0,29.2,37.8,31.3,25.5,92,70,31,30.46,30.30,12,1,12,0.00
2012-2-4,58.8,46.6,37.8,54.8,43.6,33.7,97,89,84,30.34,30.03,14,1,14,0.28
2012-2-5,64.3,52.5,41.5,55.2,46.2,38.6,92,80,61,30.12,29.92,15,2,0,0.02
2012-2-6,49.1,42.7,36.7,39.1,36.5,33.4,91,79,64,30.24,30.10,9,0,9,0.00
2012-2-7,56.5,43.0,33.4,36.8,32.2,28.4,91,69,38,30.20,30.06,6,0,6,0.00
2012-2-8,52.0,40.3,32.6,38.3,33.0,29.1,89,76,52,30.19,30.07,13,2,13,0.00
2012-2-9,49.1,37.2,30.6,33.0,29.2,25.5,89,74,51,30.28,30.13,12,1,12,0.00
2012-2-10,48.9,36.7,26.7,36.2,30.9,24.7,93,80,57,30.16,29.87,17,0,2,0.00
2012-2-11,38.7,28.7,17.7,32.6,21.7,6.1,89,75,58,30.18,29.76,33,3,0,0.01
2012-2-12,35.9,23.9,14.9,16.9,11.1,5.4,78,59,42,30.36,30.18,19,2,0,0.00
2012-2-13,49.4,34.4,20.5,25.2,18.5,14.4,82,55,30,30.32,30.05,10,0,0,0.00
2012-2-14,47.9,39.2,29.8,40.7,32.8,23.7,93,78,58,30.10,29.93,18,2,0,0.00
2012-2-15,63.2,44.6,29.6,40.5,32.8,27.8,94,69,28,30.26,30.09,12,1,0,0.00
2012-2-16,57.7,46.9,39.0,53.8,43.1,34.8,92,87,76,30.18,29.97,11,0,0,0.06
2012-2-17,61.8,48.5,35.7,43.5,37.3,28.3,93,69,33,30.12,30.00,12,1,0,0.00
2012-2-18,60.9,47.6,32.6,44.6,38.5,30.3,96,73,44,30.12,29.87,9,0,0,0.01
2012-2-19,47.5,40.8,33.8,44.7,38.6,30.8,93,92,90,29.96,29.68,19,1,0,0.42
2012-2-20,53.2,40.2,28.4,32.5,28.0,22.6,90,65,31,30.31,29.95,15,1,13,0.00
2012-2-21,51.4,37.8,25.5,39.9,32.3,23.5,92,81,62,30.29,30.00,18,2,18,0.00
2012-2-22,65.7,48.7,29.1,49.4,40.2,27.3,93,75,47,30.00,29.52,27,3,27,0.02
2012-2-23,71.2,57.3,41.0,56.3,49.4,39.2,98,77,52,29.64,29.49,24,3,24,0.00
2012-2-24,73.7,58.8,37.0,58.8,46.8,21.9,84,65,37,29.90,29.44,29,5,29,0.00
2012-2-25,51.9,39.4,30.4,25.6,20.4,15.5,68,48,28,30.30,29.90,20,1,20,0.00
2012-2-26,52.7,38.0,25.4,26.8,23.3,20.1,83,58,33,30.45,30.29,13,1,13,0.00
2012-2-27,31.2,31.2,31.2,25.5,25.5,25.5,79,79,79,30.44,30.20,8,0,8,0.00
2012-2-28,31.2,31.2,31.2,25.5,25.5,25.5,79,79,79,30.33,30.27,2,0,2,0.00
2012-3-3,49.0,45.8,43.4,35.9,29.8,25.0,73,54,44,29.78,29.70,10,0,10,0.00
2012-3-4,48.7,39.5,30.3,36.0,24.5,17.9,80,56,33,30.00,29.70,21,2,21,0.00
2012-3-5,47.7,40.0,29.6,31.9,23.9,16.8,79,54,32,30.46,29.84,24,3,24,0.00
2012-3-6,55.9,38.0,23.8,30.0,24.4,20.8,89,62,30,30.61,30.45,14,1,14,0.00
2012-3-7,59.2,45.8,30.1,48.0,39.2,26.4,92,78,62,30.60,30.36,15,1,0,0.00
2012-3-8,66.0,57.8,48.6,55.1,50.8,45.2,90,78,60,30.36,30.03,18,2,0,0.36
2012-3-9,56.0,48.0,34.6,53.1,38.9,27.8,92,73,43,30.34,30.01,23,3,23,0.29
2012-3-10,59.9,45.0,33.8,30.4,26.6,18.9,85,53,24,30.48,30.32,11,1,18,0.00
2012-3-11,63.4,44.6,27.9,39.8,32.4,25.4,91,67,32,30.56,30.38,14,1,18,0.00
2012-3-12,61.7,53.7,45.6,53.5,48.5,39.8,92,83,70,30.39,30.21,17,1,18,0.06
2012-3-13,73.5,59.1,50.2,60.8,54.3,48.3,94,85,58,30.22,30.07,7,0,18,0.05
2012-3-14,78.4,59.6,43.9,56.0,48.6,42.0,95,71,37,30.25,30.12,10,0,18,0.00
2012-3-15,80.0,58.4,43.7,60.6,50.2,41.5,92,78,36,30.27,30.13,14,0,18,0.21
2012-3-16,80.2,60.4,49.6,62.5,54.2,47.4,93,82,43,30.20,30.06,12,0,18,0.15
2012-3-17,75.6,59.8,50.6,61.5,53.3,48.1,92,81,50,30.22,30.11,8,0,18,0.00
2012-3-18,73.8,61.1,50.3,60.9,54.6,47.7,92,80,58,30.31,30.10,6,0,18,0.00
2012-3-19,70.6,70.6,70.6,60.0,60.0,60.0,69,69,69,30.16,30.10,2,0,18,0.00
2012-3-23,66.0,63.0,60.5,62.7,59.7,57.4,90,89,88,29.92,29.89,14,1,14,0.41
2012-3-24,71.8,60.7,51.0,60.8,53.2,44.7,92,78,46,29.90,29.66,17,2,17,0.24
2012-3-25,60.2,53.6,48.8,51.9,48.4,45.4,92,83,70,29.86,29.69,23,3,23,0.00
2012-3-26,73.4,61.1,51.4,55.1,49.6,44.4,89,68,39,30.04,29.83,18,2,18,0.00
2012-3-27,68.5,56.1,45.2,48.4,41.0,29.1,86,59,36,30.26,30.03,12,1,12,0.00
2012-3-28,77.9,60.8,44.2,57.0,49.7,41.3,91,70,40,30.20,29.88,18,1,18,0.00
2012-3-29,78.8,64.6,52.4,57.5,53.0,49.3,92,68,42,29.90,29.83,16,1,16,0.00
2012-3-30,79.0,60.5,48.6,57.3,50.9,41.3,95,75,35,29.98,29.80,16,1,16,0.13
2012-3-31,74.0,62.5,52.8,59.9,54.2,44.8,92,76,44,29.82,29.69,12,1,12,0.14
2012-4-1,78.2,58.3,45.8,58.8,50.4,43.6,92,78,37,29.84,29.72,14,0,14,0.01
2012-4-2,82.2,64.8,48.7,65.1,55.7,46.5,92,75,47,29.83,29.67,15,1,15,0.00
2012-4-3,77.8,61.6,53.3,64.4,56.7,50.7,92,85,59,29.94,29.83,9,0,9,0.31
2012-4-4,79.5,62.8,51.5,64.1,56.0,49.2,92,80,48,29.87,29.64,10,0,10,0.00
2012-4-5,76.8,58.7,49.5,64.0,54.6,46.9,91,87,63,29.71,29.59,13,1,13,0.89
2012-4-6,62.4,50.7,43.8,51.3,44.5,39.3,92,80,59,30.09,29.70,9,0,9,0.39
2012-4-7,70.8,52.2,35.1,43.5,37.0,27.9,92,63,22,30.25,30.08,7,0,7,0.00
2012-4-8,74.3,56.2,40.2,48.8,42.1,37.3,91,64,32,30.16,29.96,13,1,13,0.00
2012-4-9,75.1,58.3,43.9,42.2,34.0,22.7,79,44,16,30.08,29.85,13,1,13,0.00
2012-4-10,71.0,57.5,43.1,43.6,37.7,29.7,81,49,32,29.96,29.81,14,1,14,0.00
2012-4-11,58.9,48.1,39.8,33.0,26.7,20.9,57,44,28,30.12,29.83,15,2,15,0.00
2012-4-12,63.1,45.9,29.4,35.0,27.6,17.4,87,53,20,30.25,30.07,10,0,10,0.00
2012-4-13,67.0,49.4,32.3,39.5,34.4,30.0,92,62,28,30.24,30.10,9,0,9,0.00
2012-4-14,72.3,55.0,37.9,50.4,42.5,35.2,91,66,41,30.31,30.14,12,1,12,0.00
2012-4-15,78.5,61.4,41.9,61.0,52.3,39.5,92,74,47,30.18,30.08,17,2,17,0.00
2012-4-16,81.4,71.0,61.4,62.3,59.6,57.2,87,69,47,30.11,30.00,19,2,19,0.00
2012-4-17,79.1,63.5,54.3,62.4,56.8,51.7,92,80,54,30.14,30.01,13,1,13,0.48
2012-4-18,56.9,56.9,56.9,54.0,54.0,54.0,90,90,90,30.09,29.95,6,0,6,0.00
2012-4-22,47.9,42.6,40.0,39.8,37.2,33.1,88,81,70,29.67,29.58,16,2,16,0.00
2012-4-23,52.2,44.0,38.1,34.3,30.3,24.9,79,60,38,29.75,29.58,18,2,18,0.00
2012-4-24,61.7,48.9,35.4,41.4,32.8,25.9,85,56,31,29.83,29.70,15,1,15,0.00
2012-4-25,71.3,56.7,44.3,59.7,49.6,41.3,92,78,56,29.91,29.79,12,1,12,0.03
2012-4-26,70.3,61.2,55.3,62.2,57.1,52.1,89,87,74,29.87,29.72,16,1,16,0.61
2012-4-27,76.5,62.5,52.7,64.2,55.7,49.5,92,80,52,30.02,29.83,9,0,11,0.00
2012-4-28,69.2,59.9,51.3,59.4,53.2,48.2,92,79,57,30.10,30.00,11,1,11,0.00
2012-4-29,81.9,64.8,51.1,66.4,57.5,48.0,89,79,48,30.13,30.03,10,0,11,0.00
2012-4-30,82.2,67.9,54.6,68.2,60.2,51.1,88,78,55,30.14,30.00,14,1,14,0.00
2012-5-1,84.0,71.5,63.2,69.7,64.2,59.5,88,78,55,30.07,29.96,12,1,12,0.00
2012-5-2,86.4,71.1,59.1,71.1,62.4,55.2,89,75,47,30.08,29.99,10,0,11,0.00
2012-5-3,83.5,69.0,54.7,65.6,59.6,51.2,88,74,46,30.11,30.00,9,0,11,0.00
2012-5-4,81.3,69.8,61.4,67.2,61.7,57.5,88,76,54,30.04,29.87,7,0,11,0.00
2012-5-5,73.1,64.9,62.8,62.2,60.5,58.6,87,86,69,29.93,29.81,11,0,11,0.00
2012-5-6,78.5,68.0,58.5,65.4,60.8,54.9,88,79,62,29.96,29.87,9,0,11,0.00
2012-5-7,75.7,67.3,61.8,64.8,60.8,57.9,89,80,64,29.97,29.85,10,0,11,0.00
2012-5-8,76.7,66.7,62.5,68.5,61.6,58.6,88,84,68,29.88,29.74,12,0,12,2.02
2012-5-9,64.2,59.8,50.0,60.3,55.8,46.5,89,87,79,29.81,29.68,11,0,11,0.26
2012-5-10,69.0,55.8,44.7,51.0,45.8,41.4,92,72,44,29.96,29.77,11,0,11,0.00
2012-5-11,71.0,56.2,42.5,52.0,46.5,39.2,92,72,46,30.18,29.96,9,0,11,0.00
2012-5-12,68.0,57.6,47.6,60.0,52.6,43.9,88,84,70,30.30,30.17,7,0,11,0.00
2012-5-13,60.3,56.7,52.5,54.9,51.8,48.1,85,83,82,30.21,30.02,5,0,11,0.48
2012-5-14,73.0,64.7,57.0,65.8,58.6,51.5,84,81,75,30.03,29.81,8,0,11,2.18
2012-5-15,76.2,64.0,59.0,66.2,56.8,52.2,83,77,63,29.94,29.85,9,0,9,0.07
2012-5-16,77.5,67.0,58.3,63.0,54.9,50.7,83,66,46,29.95,29.83,10,0,10,0.00
2012-5-17,73.0,73.0,73.0,55.4,55.4,55.4,54,54,54,30.02,29.85,9,0,9,0.00
2012-5-18,73.0,73.0,73.0,55.4,55.4,55.4,54,54,54,30.08,29.99,7,0,7,0.00
2012-5-19,73.0,73.0,73.0,55.4,55.4,55.4,54,54,54,30.12,30.02,7,0,7,0.00
2012-5-20,73.0,69.9,53.5,55.4,53.9,46.1,76,58,54,30.14,30.08,2,0,5,0.00
2012-6-1,60.5,58.7,57.7,53.3,52.4,51.1,80,79,77,29.80,29.75,7,1,7,0.00
2012-6-2,69.2,58.7,51.1,54.7,48.7,45.2,82,70,52,29.92,29.77,10,1,10,0.00
2012-6-3,66.8,50.9,46.0,56.4,43.1,37.5,82,75,66,29.96,29.89,4,0,4,0.00
2012-6-10,67.8,64.1,61.5,60.9,53.8,46.6,79,69,58,30.10,30.06,10,0,0,0.06
2012-6-11,74.8,67.2,61.4,67.1,52.6,44.6,77,60,48,30.08,29.91,6,0,0,0.30
2012-6-12,81.6,71.8,64.8,71.7,58.1,44.4,77,63,43,29.95,29.81,6,0,0,0.02
2012-6-13,82.0,75.3,66.5,69.3,63.7,43.9,77,68,44,29.97,29.84,3,0,0,0.00
2012-6-14,76.9,73.6,65.4,68.8,63.0,54.6,76,70,63,30.14,29.90,7,0,0,0.00
2012-6-15,75.3,73.0,65.1,65.4,62.8,58.1,78,71,67,30.21,30.06,8,0,0,0.00
2012-6-16,76.4,72.2,58.0,64.6,60.7,39.4,77,67,48,30.26,30.08,6,0,0,0.00
2012-6-17,79.3,74.9,63.8,66.0,63.4,53.3,78,67,62,30.15,29.93,6,0,0,0.00
2012-6-18,79.0,79.0,79.0,65.8,65.8,65.8,64,64,64,30.03,29.94,0,0,0,0.00
2012-7-4,76.3,74.1,72.3,60.0,51.9,46.5,57,46,40,29.96,29.90,0,0,0,0.05
2012-7-5,93.0,76.1,66.6,73.8,56.4,36.8,76,53,28,29.97,29.84,10,0,0,0.01
2012-7-6,91.3,75.9,64.5,70.5,60.6,41.8,75,60,43,29.97,29.87,9,0,0,0.00
2012-7-7,93.0,77.9,65.9,74.3,59.8,37.8,74,55,31,30.00,29.88,9,0,0,0.00
2012-7-8,92.2,78.4,67.8,75.4,59.7,37.2,74,54,28,29.97,29.80,9,0,0,0.00
2012-7-9,88.5,76.5,69.0,73.1,60.4,39.2,74,59,33,29.88,29.82,10,0,0,0.00
2012-7-10,83.0,73.6,70.7,71.8,53.6,42.1,73,51,35,29.94,29.86,0,0,0,0.00
2012-7-14,83.3,77.2,69.0,71.8,57.7,26.3,71,55,21,30.16,30.04,3,0,5,0.04
2012-7-15,80.7,72.8,65.3,69.7,42.4,9.6,70,40,9,30.16,30.03,6,0,6,0.01
2012-7-16,70.1,68.9,67.8,24.7,19.4,15.2,18,15,13,30.08,30.05,0,0,5,0.00
2012-8-18,69.1,68.2,67.4,0.0,0.0,0.0,0,0,100,29.87,29.84,0,0,0,0.00
2012-8-19,76.4,68.5,63.2,62.4,12.6,-35.9,63,12,1,29.86,29.75,4,0,0,0.00
2012-8-20,65.5,63.8,60.0,0.0,0.0,0.0,0,0,100,29.96,29.81,0,0,0,0.00
2012-8-21,78.2,64.2,56.0,63.7,20.1,-39.1,64,21,3,30.06,29.94,6,0,0,0.00
2012-8-22,77.6,66.8,57.9,64.0,22.1,-38.2,64,21,1,30.10,30.00,4,0,0,0.00
2012-8-23,79.7,68.5,61.6,65.4,21.1,-36.6,63,20,1,30.13,30.02,5,0,0,0.00
2012-8-24,79.7,67.5,60.9,65.4,16.6,-35.1,64,16,2,30.14,30.03,6,0,0,0.00
2012-8-25,79.3,66.6,58.9,65.0,12.0,-35.0,62,11,2,30.15,30.01,7,0,0,0.00
2012-8-26,83.5,69.7,60.8,68.3,22.3,-34.2,64,20,4,30.15,30.02,9,0,0,0.04
2012-8-27,81.7,70.0,61.0,67.2,23.5,-35.1,63,22,2,30.14,29.97,10,0,0,0.00
2012-8-28,80.0,69.4,62.5,65.4,10.7,-35.6,62,9,1,30.02,29.90,3,0,0,0.00
2012-8-29,69.2,67.8,67.5,0.0,0.0,0.0,0,0,100,30.01,29.89,4,0,0,0.00
2012-8-30,67.5,67.5,67.5,0.0,0.0,0.0,0,0,100,30.16,29.99,7,0,0,0.00
2012-8-31,67.5,67.5,67.5,0.0,0.0,0.0,0,0,100,30.24,30.13,5,0,0,0.00
2012-9-1,68.1,67.9,67.5,0.0,0.0,0.0,0,0,100,30.18,30.06,8,0,0,0.00
2012-9-2,68.1,68.1,68.1,0.0,0.0,0.0,0,0,100,30.09,29.94,12,0,0,0.00
2012-9-3,68.1,68.1,68.1,0.0,0.0,0.0,0,0,100,29.99,29.91,9,0,0,0.00
2012-9-4,68.1,68.1,68.1,0.0,0.0,0.0,0,0,100,29.96,29.89,7,0,0,0.00
2012-9-8,62.4,61.0,60.3,0.0,0.0,0.0,0,0,100,29.85,29.77,4,0,4,0.10
2012-9-9,73.5,62.1,52.3,58.0,27.5,-42.8,67,31,2,30.01,29.85,11,0,11,0.00
2012-9-10,76.8,62.1,49.9,59.8,23.7,-40.8,66,25,1,30.12,30.00,5,0,5,0.00
2012-9-11,74.1,63.8,57.9,60.7,24.2,-40.8,66,27,1,30.25,30.10,6,0,6,0.00
2012-9-12,76.3,63.3,53.6,61.8,23.1,-39.5,65,24,1,30.32,30.19,5,0,5,0.00
2012-9-13,73.5,62.4,53.2,59.1,24.4,-39.6,66,27,1,30.34,30.20,5,0,5,0.00
2012-9-14,77.0,68.8,59.8,62.5,33.9,-37.6,65,35,2,30.17,30.11,1,0,1,0.00
2012-9-15,80.7,66.3,55.6,64.1,22.9,-36.1,65,22,1,30.20,30.04,7,0,7,0.00
2012-9-16,74.0,65.5,62.2,43.0,1.4,-36.8,34,1,2,30.10,30.00,7,0,7,1.64
2012-9-17,68.3,65.3,62.1,0.0,0.0,0.0,0,0,100,30.05,29.75,16,0,16,0.61
2012-9-18,67.7,67.2,66.7,0.0,0.0,0.0,0,0,100,29.86,29.63,20,1,20,0.00
2012-9-19,67.7,67.7,67.7,0.0,0.0,0.0,0,0,100,30.07,29.85,9,0,9,0.00
2012-9-20,67.7,67.7,67.7,0.0,0.0,0.0,0,0,100,30.11,30.00,7,0,7,0.00
2012-9-21,67.7,58.2,52.8,0.0,0.0,0.0,0,0,100,30.06,29.94,7,0,7,0.00
2012-9-22,52.8,52.8,52.8,0.0,0.0,0.0,0,0,100,30.01,29.89,14,0,14,0.00
2012-9-23,52.8,51.8,51.2,0.0,0.0,0.0,0,0,100,30.12,30.00,5,0,5,0.00
2012-9-24,51.2,51.2,51.2,0.0,0.0,0.0,0,0,100,30.11,30.10,1,0,1,0.00
2012-9-28,69.5,65.9,63.1,30.1,-1.1,-35.9,23,1,1,30.00,29.97,0,0,0,0.00
2012-9-29,71.9,63.7,58.7,47.3,3.0,-37.4,46,3,2,29.98,29.81,9,0,0,0.11
2012-9-30,68.0,60.2,54.0,55.8,14.6,-40.8,65,18,1,29.89,29.78,5,0,0,0.00
2012-10-1,60.1,57.8,56.9,0.0,0.0,0.0,0,0,100,29.83,29.73,9,0,0,1.10
2012-10-2,72.3,65.2,57.8,58.8,15.3,-38.5,63,15,1,29.93,29.68,14,0,0,1.61
2012-10-3,75.3,63.5,57.8,62.3,16.8,-38.8,65,18,2,30.15,29.92,7,0,0,0.00
2012-10-4,74.3,63.3,55.4,60.5,21.8,-40.9,66,24,1,30.22,30.12,12,0,0,0.00
2012-10-5,75.7,60.6,49.5,61.3,21.5,-40.2,65,23,2,30.21,29.99,9,0,0,0.00
2012-10-6,75.0,60.2,50.6,61.3,21.0,-44.3,65,23,2,30.01,29.86,8,0,0,0.00
2012-10-7,57.3,52.4,46.1,25.9,1.2,-49.6,40,7,1,30.10,29.90,12,0,0,0.21
2012-10-8,47.6,47.3,47.2,22.4,2.3,-2.7,37,16,12,30.17,30.02,1,0,0,0.00
2012-10-9,47.3,16.6,0.0,0.5,0.2,0.0,14,5,14,30.07,30.02,1,0,0,0.00
2012-10-15,69.5,61.5,52.0,57.2,41.0,-37.2,67,52,5,29.86,29.72,14,1,0,0.55
2012-10-16,67.0,55.0,46.8,47.9,35.8,-25.0,68,51,4,29.94,29.81,11,0,0,0.00
2012-10-17,68.3,52.7,41.0,51.3,18.8,-49.5,66,24,1,29.98,29.83,11,0,0,0.00
2012-10-18,66.8,55.3,44.3,49.6,7.5,-42.7,54,9,1,29.85,29.72,16,1,0,0.00
2012-10-19,66.8,53.5,40.4,45.4,21.6,-27.9,68,27,3,29.78,29.64,18,1,0,0.01
2012-10-20,64.3,50.7,40.3,47.8,23.5,-52.7,66,39,1,29.95,29.73,6,0,0,0.00
2012-10-21,68.3,52.0,39.6,50.3,21.2,-50.7,67,29,1,30.14,29.95,7,0,0,0.00
2012-10-22,75.3,55.5,41.6,54.9,21.5,-45.4,67,24,1,30.25,30.09,6,0,0,0.00
2012-10-23,76.8,57.3,42.9,57.8,22.0,-44.5,65,23,1,30.21,30.04,8,0,0,0.00
2012-10-24,77.8,57.7,43.3,57.2,21.9,-44.9,66,23,1,30.22,30.03,7,0,0,0.00
2012-10-25,49.9,46.5,44.2,0.0,0.0,0.0,0,0,100,30.16,30.00,10,0,0,0.00
2012-10-26,44.4,44.4,44.4,0.0,0.0,0.0,0,0,100,30.06,29.99,7,0,0,0.00
2012-10-28,41.2,40.5,40.3,25.2,19.2,11.5,54,43,31,29.79,29.77,20,3,20,0.05
2012-10-29,43.0,40.2,39.0,33.1,28.1,19.6,71,62,45,29.78,29.56,32,3,32,0.00
2012-10-30,42.4,39.5,37.0,31.9,28.9,20.1,69,65,52,29.67,29.45,15,1,24,0.00
2012-10-31,55.2,43.4,33.7,40.2,29.9,16.1,71,59,46,29.81,29.65,10,0,24,0.00
2012-11-1,56.4,43.2,32.7,33.6,28.1,22.8,71,57,32,29.91,29.76,12,1,24,0.00
2012-11-2,69.4,46.5,30.2,45.3,28.9,5.1,69,51,30,29.97,29.78,13,1,24,0.00
2012-11-3,68.1,45.7,35.2,38.7,20.8,-7.8,69,40,15,30.08,29.96,7,0,24,0.00
2012-11-4,66.0,55.9,44.9,53.5,44.3,30.7,68,65,59,29.96,29.87,10,1,24,0.00
2012-11-5,57.5,45.7,36.3,37.7,22.5,-55.7,69,42,1,30.05,29.94,14,0,24,0.00
2012-11-6,43.9,39.6,36.7,34.8,7.0,-55.3,70,31,1,30.08,29.92,6,0,24,0.14
2012-11-7,44.8,39.8,37.5,14.9,-5.0,-54.4,30,9,1,30.00,29.84,14,1,24,0.14
2012-11-8,55.4,44.5,33.5,39.6,21.3,-56.6,69,43,2,30.18,29.99,14,1,14,0.00
2012-11-9,63.3,44.2,29.6,38.7,15.4,-59.0,69,33,1,30.31,30.16,9,0,9,0.00
2012-11-10,71.2,50.6,31.6,39.6,13.7,-58.2,34,17,1,30.38,30.22,7,0,7,0.00
2012-11-11,68.1,68.1,68.1,38.7,38.7,38.7,34,34,34,30.38,30.24,1,0,2,0.00
2012-12-4,58.0,52.6,49.2,46.7,28.3,-47.6,66,42,3,30.22,30.13,3,0,3,0.00
2012-12-5,59.2,54.1,49.2,44.2,16.8,-47.6,68,30,1,30.16,30.07,10,1,10,0.01
2012-12-6,53.1,48.2,44.2,39.6,35.4,29.7,68,61,49,30.23,30.12,10,0,10,0.00
2012-12-7,60.4,47.9,40.4,39.7,14.9,-52.3,69,26,1,30.16,29.94,9,0,9,0.05
2012-12-8,68.8,49.7,40.1,54.2,11.4,-32.5,65,14,3,30.04,29.91,17,1,17,0.00
2012-12-9,67.9,55.8,46.8,54.4,14.3,-44.2,62,17,2,30.07,29.91,22,1,22,0.02
2012-12-10,59.9,56.4,49.1,0.0,0.0,0.0,0,0,100,29.92,29.63,18,1,18,0.27
2012-12-11,48.3,40.3,35.5,34.0,7.5,-53.8,67,35,1,30.12,29.70,17,2,17,0.00
2012-12-12,41.9,41.3,40.4,30.2,29.2,27.1,64,62,57,30.28,30.24,10,1,0,0.00
2012-12-13,50.7,44.5,38.0,29.6,26.4,21.9,68,51,33,30.34,30.23,9,0,0,0.00
2012-12-14,50.0,50.0,50.0,24.1,24.1,24.1,36,36,36,30.29,30.29,0,0,0,0.00
2012-12-17,52.8,50.5,45.6,0.0,0.0,0.0,0,0,100,29.74,29.61,13,1,13,0.10
2012-12-18,51.9,43.7,30.7,39.0,14.8,-59.2,69,31,2,29.95,29.65,17,1,17,0.00
2012-12-19,31.6,30.7,30.1,0.0,-5.8,-59.2,2,0,1,29.95,29.94,5,0,5,0.00
2012-12-21,40.4,35.9,30.9,26.8,22.7,18.7,69,59,51,29.93,29.70,22,2,22,0.00
2012-12-22,45.7,33.7,26.5,19.8,17.5,14.9,66,53,30,30.19,29.93,30,3,30,0.00
2012-12-23,51.2,37.1,25.3,32.4,24.0,16.9,72,61,35,30.19,29.99,6,0,8,0.00
2012-12-24,51.9,45.0,38.4,30.9,3.8,-54.2,70,10,3,29.99,29.80,13,0,13,0.27
2012-12-25,50.9,42.0,34.9,35.6,5.2,-2.3,58,8,36,30.05,29.90,9,1,9,0.01
2012-12-26,44.3,39.4,33.5,24.4,4.5,-53.5,62,17,2,29.75,29.43,14,2,14,2.16
2012-12-27,37.9,32.7,29.7,28.1,14.3,-1.8,68,48,25,30.10,29.74,24,3,24,0.00
2012-12-28,44.2,38.5,27.9,33.7,24.0,-57.5,69,55,6,30.15,29.98,9,1,0,0.00
2012-12-30,39.4,33.0,26.4,23.7,21.0,15.0,71,61,49,30.44,30.33,16,2,16,0.00
2012-12-31,52.7,38.7,24.2,30.9,18.0,-12.4,70,44,18,30.39,30.03,6,0,13,0.00
2013-1-1,46.1,44.3,39.2,30.4,13.3,0.0,54,24,32,30.07,29.92,7,0,13,0.43